Zurück zum Katalog

ONEWEB-0371

AktivKommunikationPO
NORAD 49297·PAYLOAD·🇬🇧 United Kingdom

Gestartet Oct 14, 2021 von Vostochny Cosmodrome

Loading…

Nächste Überflüge (nächste 24 Stunden)

TLE

AktuellSource: CelesTrak SupGP

Epoche: Sep 14, 2026, 21:19 UTC

1 49297C 21090U   26257.88868472  .00000948  00000+0  23703-2 0  2570
2 49297  87.9107 287.1000 0002196  95.3174 300.6413 13.19723328    17

Verfolge ONEWEB-0371 in Echtzeit mit AllMySat

Download on the App Store